This is the latest recevied weather packets stored in our database for station/object W0WC. If no packets are shown the sender has not sent any weather packets the latest 10 day(s).
| Time | Temp. | Humidity | Pressure | Rain* | Wind** | Luminosity | Snow |
|---|---|---|---|---|---|---|---|
| 1778126014 | 8.33° C | 74% | 1019.2 hPa | 0 mm | - | 0 W/m² | - |
| 1778125712 | 8.33° C | 72% | 1019.1 hPa | 0 mm | - | 0 W/m² | - |
| 1778125408 | 8.89° C | 70% | 1019 hPa | 0 mm | - | 0 W/m² | - |
| 1778125106 | 8.89° C | 69% | 1019 hPa | 0 mm | - | 0 W/m² | - |
| 1778124804 | 8.89° C | 69% | 1019 hPa | 0 mm | - | 0 W/m² | - |
| 1778124501 | 9.44° C | 68% | 1019 hPa | 0 mm | - | 0 W/m² | - |
| 1778124197 | 9.44° C | 67% | 1019.2 hPa | 0 mm | - | 0 W/m² | - |
| 1778123894 | 10° C | 67% | 1018.8 hPa | 0 mm | - | 0 W/m² | - |
| 1778123591 | 10° C | 67% | 1019 hPa | 0 mm | - | 0 W/m² | - |
| 1778123287 | 10° C | 67% | 1019.1 hPa | 0 mm | - | 0 W/m² | - |
| 1778122985 | 9.44° C | 69% | 1018.9 hPa | 0 mm | - | 0 W/m² | - |
| 1778122681 | 9.44° C | 71% | 1019 hPa | 0 mm | - | 0 W/m² | - |
| 1778122379 | 8.89° C | 73% | 1019 hPa | 0 mm | - | 0 W/m² | - |
| 1778122077 | 8.33° C | 73% | 1018.9 hPa | 0 mm | - | 0 W/m² | - |
| 1778121773 | 8.89° C | 76% | 1018.8 hPa | 0 mm | - | 0 W/m² | - |
| 1778121469 | 8.89° C | 74% | 1019 hPa | 0 mm | - | 0 W/m² | - |
| 1778121166 | 9.44° C | 69% | 1018.7 hPa | 0 mm | - | 0 W/m² | - |
| 1778120864 | 9.44° C | 67% | 1018.6 hPa | 0 mm | - | 0 W/m² | - |
| 1778120559 | 10° C | 65% | 1018.8 hPa | 0 mm | - | 0 W/m² | - |
| 1778120256 | 10.56° C | 63% | 1018.5 hPa | 0 mm | - | 0 W/m² | - |
| 1778119951 | 10.56° C | 61% | 1018.4 hPa | 0 mm | - | 0 W/m² | - |
| 1778119650 | 11.11° C | 60% | 1018.6 hPa | 0 mm | - | 0 W/m² | - |
| 1778119346 | 11.67° C | 59% | 1018.4 hPa | 0 mm | - | 0 W/m² | - |
| 1778119044 | 11.67° C | 58% | 1018.4 hPa | 0 mm | - | 0 W/m² | - |
| 1778118741 | 11.67° C | 58% | 1018.3 hPa | 0 mm | - | 0 W/m² | - |
* Rain latest hour (hover to see other rain measurements)
** Current wind speed in m/s (hover to see current wind gust speed)